| time (UTC) | temp C | wind direction | speed KPH | gust KPH | rain 1hr cm | rain 24hr cm | rain mn cm | humidity % | barometer mb |
| 20260504100507 | 7 | 196 | 0.0 | 3.2 | 0.00 | 0.00 | 0.00 | 62 | 1012.8 |
| 20260504082004 | 7 | 196 | 0.0 | 3.2 | 0.00 | 0.00 | 0.00 | 62 | 1012.9 |
| 20260504081508 | 7 | 196 | 0.0 | 3.2 | 0.00 | 0.00 | 0.00 | 62 | 1012.9 |
| 20260504081003 | 7 | 196 | 0.0 | 3.2 | 0.00 | 0.00 | 0.00 | 62 | 1013.0 |
| 20260504080506 | 7 | 196 | 0.0 | 1.6 | 0.00 | 0.00 | 0.00 | 62 | 1013.0 |
| 20260504050508 | 7 | 239 | 0.0 | 0.0 | 0.00 | 0.00 | 0.00 | 62 | 1013.2 |
| 20260504045508 | 7 | 239 | 0.0 | 0.0 | 0.00 | 0.00 | 0.00 | 62 | 1013.2 |
| 20260504045008 | 7 | 239 | 0.0 | 0.0 | 0.00 | 0.00 | 0.00 | 62 | 1013.1 |
| 20260504044513 | 7 | 239 | 0.0 | 0.0 | 0.00 | 0.00 | 0.00 | 62 | 1013.3 |
| 20260504044005 | 7 | 239 | 0.0 | 0.0 | 0.00 | 0.00 | 0.00 | 62 | 1013.2 |
| 20260504043507 | 7 | 239 | 0.0 | 0.0 | 0.00 | 0.00 | 0.00 | 62 | 1013.3 |
| 20260504043022 | 7 | 239 | 0.0 | 0.0 | 0.00 | 0.00 | 0.00 | 62 | 1013.3 |
| 20260504042508 | 7 | 239 | 0.0 | 0.0 | 0.00 | 0.00 | 0.00 | 61 | 1013.3 |
| 20260504042008 | 7 | 239 | 0.0 | 0.0 | 0.00 | 0.00 | 0.00 | 62 | 1013.2 |
| 20260504041519 | 7 | 239 | 0.0 | 0.0 | 0.00 | 0.00 | 0.00 | 62 | 1013.2 |
| 20260504041007 | 7 | 239 | 0.0 | 0.0 | 0.00 | 0.00 | 0.00 | 62 | 1013.2 |
| 20260504040508 | 7 | 239 | 0.0 | 0.0 | 0.00 | 0.00 | 0.00 | 62 | 1013.2 |
| 20260504040029 | 7 | 239 | 0.0 | 0.0 | 0.00 | 0.00 | 0.00 | 62 | 1013.2 |
| 20260504035508 | 7 | 239 | 0.0 | 0.0 | 0.00 | 0.00 | 0.00 | 61 | 1013.3 |
| 20260504035009 | 7 | 239 | 0.0 | 0.0 | 0.00 | 0.00 | 0.00 | 61 | 1013.1 |
| 20260504034526 | 7 | 239 | 0.0 | 0.0 | 0.00 | 0.00 | 0.00 | 61 | 1013.0 |
| 20260504034008 | 7 | 239 | 0.0 | 0.0 | 0.00 | 0.00 | 0.00 | 61 | 1013.0 |
| 20260504033504 | 7 | 239 | 0.0 | 0.0 | 0.00 | 0.00 | 0.00 | 60 | 1012.9 |
| 20260504033013 | 7 | 239 | 0.0 | 0.0 | 0.00 | 0.00 | 0.00 | 59 | 1012.9 |
| 20260504032507 | 7 | 239 | 0.0 | 0.0 | 0.00 | 0.00 | 0.00 | 60 | 1012.9 |
| 20260504032010 | 8 | 239 | 0.0 | 0.0 | 0.00 | 0.00 | 0.00 | 61 | 1013.0 |
| 20260504031518 | 8 | 239 | 0.0 | 0.0 | 0.00 | 0.00 | 0.00 | 60 | 1012.9 |
| 20260504031008 | 8 | 239 | 0.0 | 0.0 | 0.00 | 0.00 | 0.00 | 59 | 1012.8 |
| 20260504030508 | 8 | 239 | 0.0 | 0.0 | 0.00 | 0.00 | 0.00 | 59 | 1012.8 |
| 20260504030024 | 8 | 239 | 0.0 | 0.0 | 0.00 | 0.00 | 0.00 | 58 | 1012.8 |
| 20260504025507 | 8 | 239 | 0.0 | 0.0 | 0.00 | 0.00 | 0.00 | 57 | 1012.8 |
| 20260504025013 | 8 | 239 | 0.0 | 0.0 | 0.00 | 0.00 | 0.00 | 57 | 1012.9 |
| 20260504024526 | 8 | 239 | 0.0 | 0.0 | 0.00 | 0.00 | 0.00 | 57 | 1012.9 |
| 20260504024008 | 8 | 239 | 0.0 | 0.0 | 0.00 | 0.00 | 0.00 | 57 | 1012.9 |
| 20260504023509 | 8 | 239 | 0.0 | 0.0 | 0.00 | 0.00 | 0.00 | 56 | 1012.9 |
| 20260504023028 | 9 | 239 | 0.0 | 0.0 | 0.00 | 0.00 | 0.00 | 56 | 1012.9 |
| 20260504022511 | 9 | 239 | 0.0 | 0.0 | 0.00 | 0.00 | 0.00 | 55 | 1012.9 |
| 20260504022005 | 9 | 239 | 0.0 | 0.0 | 0.00 | 0.00 | 0.00 | 55 | 1012.9 |
| 20260504021513 | 9 | 239 | 0.0 | 0.0 | 0.00 | 0.00 | 0.00 | 54 | 1012.9 |
| 20260504021008 | 9 | 239 | 0.0 | 0.0 | 0.00 | 0.00 | 0.00 | 54 | 1012.9 |
| 20260504020508 | 10 | 239 | 0.0 | 0.0 | 0.00 | 0.00 | 0.00 | 53 | 1012.9 |
| 20260504020018 | 10 | 239 | 0.0 | 0.0 | 0.00 | 0.00 | 0.00 | 53 | 1013.0 |
| 20260504015509 | 10 | 239 | 0.0 | 0.0 | 0.00 | 0.00 | 0.00 | 51 | 1012.9 |
| 20260504015008 | 10 | 239 | 0.0 | 0.0 | 0.00 | 0.00 | 0.00 | 51 | 1012.9 |
| 20260504014524 | 10 | 239 | 0.0 | 3.2 | 0.00 | 0.00 | 0.00 | 51 | 1012.9 |
| 20260504014009 | 10 | 239 | 0.0 | 3.2 | 0.00 | 0.00 | 0.00 | 50 | 1012.9 |
| 20260504013508 | 10 | 239 | 0.0 | 4.8 | 0.00 | 0.00 | 0.00 | 50 | 1012.9 |
| 20260504013031 | 10 | 239 | 1.6 | 4.8 | 0.00 | 0.00 | 0.00 | 51 | 1012.9 |
| 20260504012516 | 10 | 240 | 0.0 | 4.8 | 0.00 | 0.00 | 0.00 | 50 | 1012.8 |
| 20260504012010 | 11 | 240 | 1.6 | 4.8 | 0.00 | 0.00 | 0.00 | 50 | 1012.7 |
| 20260504011528 | 11 | 241 | 1.6 | 3.2 | 0.00 | 0.00 | 0.00 | 49 | 1012.7 |
| 20260504011012 | 11 | 241 | 1.6 | 3.2 | 0.00 | 0.00 | 0.00 | 50 | 1012.6 |
| 20260504010507 | 11 | 242 | 1.6 | 3.2 | 0.00 | 0.00 | 0.00 | 49 | 1012.6 |
| 20260504010018 | 11 | 317 | 0.0 | 4.8 | 0.00 | 0.00 | 0.00 | 48 | 1012.6 |
| 20260504005508 | 11 | 318 | 0.0 | 4.8 | 0.00 | 0.00 | 0.00 | 47 | 1012.7 |
| 20260504005009 | 11 | 321 | 1.6 | 4.8 | 0.00 | 0.00 | 0.00 | 48 | 1012.7 |
| 20260504004520 | 11 | 300 | 0.0 | 4.8 | 0.00 | 0.00 | 0.00 | 48 | 1012.6 |
| 20260504004009 | 11 | 205 | 0.0 | 4.8 | 0.00 | 0.00 | 0.00 | 48 | 1012.5 |
| 20260504003509 | 11 | 204 | 0.0 | 4.8 | 0.00 | 0.00 | 0.00 | 48 | 1012.5 |
| 20260504003026 | 11 | 202 | 0.0 | 4.8 | 0.00 | 0.00 | 0.00 | 47 | 1012.5 |
| 20260504002508 | 12 | 203 | 1.6 | 4.8 | 0.00 | 0.00 | 0.00 | 47 | 1012.5 |
| 20260504002010 | 12 | 234 | 0.0 | 4.8 | 0.00 | 0.00 | 0.00 | 46 | 1012.4 |
| 20260504001528 | 12 | 236 | 1.6 | 6.4 | 0.00 | 0.00 | 0.00 | 45 | 1012.2 |
| 20260504001011 | 12 | 281 | 0.0 | 6.4 | 0.00 | 0.00 | 0.00 | 44 | 1012.1 |
| 20260504000514 | 12 | 238 | 0.0 | 6.4 | 0.00 | 0.00 | 0.00 | 45 | 1012.0 |
| 20260504000030 | 12 | 189 | 1.6 | 6.4 | 0.00 | 0.00 | 0.00 | 44 | 1012.0 |
| 20260503235507 | 12 | 285 | 1.6 | 6.4 | 0.00 | 0.00 | 0.00 | 44 | 1012.0 |
| 20260503235010 | 13 | 256 | 1.6 | 6.4 | 0.00 | 0.00 | 0.00 | 43 | 1012.0 |
| 20260503234523 | 13 | 294 | 0.0 | 9.7 | 0.00 | 0.00 | 0.00 | 44 | 1011.8 |
| 20260503234003 | 13 | 250 | 3.2 | 14.5 | 0.00 | 0.00 | 0.00 | 43 | 1011.8 |
| 20260503233505 | 13 | 279 | 6.4 | 14.5 | 0.00 | 0.00 | 0.00 | 42 | 1011.7 |
| 20260503233003 | 13 | 219 | 3.2 | 17.7 | 0.00 | 0.00 | 0.00 | 42 | 1011.7 |
| 20260503232504 | 13 | 267 | 1.6 | 17.7 | 0.00 | 0.00 | 0.00 | 41 | 1011.7 |
| 20260503232006 | 14 | 265 | 6.4 | 14.5 | 0.00 | 0.00 | 0.00 | 41 | 1011.8 |
| 20260503231511 | 14 | 344 | 3.2 | 12.9 | 0.00 | 0.00 | 0.00 | 41 | 1011.8 |
| 20260503231004 | 14 | 242 | 3.2 | 17.7 | 0.00 | 0.00 | 0.00 | 42 | 1011.8 |
| 20260503230504 | 14 | 284 | 4.8 | 17.7 | 0.00 | 0.00 | 0.00 | 41 | 1011.7 |
| 20260503230014 | 14 | 292 | 6.4 | 17.7 | 0.00 | 0.00 | 0.00 | 40 | 1011.6 |
| 20260503225506 | 14 | 263 | 3.2 | 20.9 | 0.00 | 0.00 | 0.00 | 42 | 1011.6 |
| 20260503225008 | 14 | 284 | 9.7 | 20.9 | 0.00 | 0.00 | 0.00 | 40 | 1011.6 |
| 20260503224517 | 14 | 285 | 9.7 | 20.9 | 0.00 | 0.00 | 0.00 | 40 | 1011.5 |
| 20260503224011 | 14 | 262 | 8.0 | 20.9 | 0.00 | 0.00 | 0.00 | 40 | 1011.5 |
| 20260503223511 | 15 | 290 | 9.7 | 19.3 | 0.00 | 0.00 | 0.00 | 40 | 1011.6 |
| 20260503223021 | 15 | 299 | 8.0 | 19.3 | 0.00 | 0.00 | 0.00 | 40 | 1011.6 |
| 20260503222504 | 15 | 309 | 3.2 | 14.5 | 0.00 | 0.00 | 0.00 | 40 | 1011.5 |
| 20260503222004 | 15 | 316 | 8.0 | 17.7 | 0.00 | 0.00 | 0.00 | 40 | 1011.6 |
| 20260503221505 | 14 | 278 | 9.7 | 25.7 | 0.00 | 0.00 | 0.00 | 40 | 1011.7 |
| 20260503221006 | 14 | 284 | 9.7 | 25.7 | 0.00 | 0.00 | 0.00 | 41 | 1011.6 |
| 20260503220506 | 14 | 272 | 8.0 | 27.4 | 0.00 | 0.00 | 0.00 | 40 | 1011.6 |
| 20260503220011 | 14 | 134 | 14.5 | 27.4 | 0.00 | 0.00 | 0.00 | 39 | 1011.6 |
| 20260503215506 | 15 | 261 | 8.0 | 24.1 | 0.00 | 0.00 | 0.00 | 41 | 1011.5 |
| 20260503215011 | 15 | 303 | 8.0 | 22.5 | 0.00 | 0.00 | 0.00 | 40 | 1011.6 |
| 20260503214516 | 14 | 307 | 6.4 | 19.3 | 0.00 | 0.00 | 0.00 | 40 | 1011.5 |
| 20260503214007 | 15 | 288 | 9.7 | 22.5 | 0.00 | 0.00 | 0.00 | 40 | 1011.5 |
| 20260503213508 | 15 | 274 | 6.4 | 22.5 | 0.00 | 0.00 | 0.00 | 41 | 1011.5 |
| 20260503213019 | 14 | 334 | 8.0 | 22.5 | 0.00 | 0.00 | 0.00 | 39 | 1011.5 |
| 20260503212509 | 15 | 322 | 8.0 | 22.5 | 0.00 | 0.00 | 0.00 | 40 | 1011.5 |
| 20260503212010 | 15 | 289 | 8.0 | 22.5 | 0.00 | 0.00 | 0.00 | 42 | 1011.5 |
| 20260503211504 | 15 | 290 | 9.7 | 22.5 | 0.00 | 0.00 | 0.00 | 40 | 1011.5 |
| 20260503211003 | 14 | 281 | 8.0 | 32.2 | 0.00 | 0.00 | 0.00 | 42 | 1011.4 |
| 20260503210506 | 14 | 271 | 12.9 | 32.2 | 0.00 | 0.00 | 0.00 | 39 | 1011.5 |
| 20260503210015 | 13 | 279 | 8.0 | 19.3 | 0.00 | 0.00 | 0.00 | 43 | 1011.5 |
| 20260503205504 | 13 | 273 | 6.4 | 24.1 | 0.00 | 0.00 | 0.00 | 41 | 1011.6 |
| 20260503205007 | 14 | 271 | 9.7 | 25.7 | 0.00 | 0.00 | 0.00 | 39 | 1011.6 |
| 20260503204514 | 14 | 278 | 11.3 | 37.0 | 0.00 | 0.00 | 0.00 | 40 | 1011.6 |
| 20260503204009 | 14 | 306 | 11.3 | 37.0 | 0.00 | 0.00 | 0.00 | 42 | 1011.6 |
| 20260503203508 | 13 | 278 | 14.5 | 24.1 | 0.00 | 0.00 | 0.00 | 41 | 1011.6 |
| 20260503203019 | 14 | 274 | 8.0 | 22.5 | 0.00 | 0.00 | 0.00 | 42 | 1011.8 |
| 20260503202510 | 14 | 276 | 6.4 | 24.1 | 0.00 | 0.00 | 0.00 | 41 | 1011.7 |
| 20260503202012 | 14 | 279 | 9.7 | 24.1 | 0.00 | 0.00 | 0.00 | 42 | 1011.8 |
| 20260503201524 | 14 | 234 | 11.3 | 24.1 | 0.00 | 0.00 | 0.00 | 40 | 1011.7 |
| 20260503201008 | 14 | 236 | 8.0 | 24.1 | 0.00 | 0.00 | 0.00 | 42 | 1011.9 |
| 20260503200504 | 14 | 295 | 9.7 | 27.4 | 0.00 | 0.00 | 0.00 | 43 | 1011.9 |
| 20260503200009 | 14 | 285 | 8.0 | 27.4 | 0.00 | 0.00 | 0.00 | 40 | 1011.9 |
| 20260503195503 | 14 | 316 | 11.3 | 27.4 | 0.00 | 0.00 | 0.00 | 42 | 1012.0 |
| 20260503195003 | 13 | 331 | 16.1 | 27.4 | 0.00 | 0.00 | 0.00 | 42 | 1012.0 |
| 20260503194513 | 13 | 292 | 14.5 | 25.7 | 0.00 | 0.00 | 0.00 | 40 | 1012.1 |
| 20260503194008 | 14 | 292 | 8.0 | 22.5 | 0.00 | 0.00 | 0.00 | 45 | 1012.2 |
| 20260503193508 | 14 | 288 | 11.3 | 22.5 | 0.00 | 0.00 | 0.00 | 42 | 1012.1 |
| 20260503193015 | 14 | 298 | 6.4 | 19.3 | 0.00 | 0.00 | 0.00 | 44 | 1012.2 |
| 20260503192508 | 13 | 352 | 6.4 | 25.7 | 0.00 | 0.00 | 0.00 | 44 | 1012.3 |
| 20260503192007 | 13 | 295 | 9.7 | 25.7 | 0.00 | 0.00 | 0.00 | 42 | 1012.4 |
| 20260503191519 | 13 | 337 | 9.7 | 29.0 | 0.00 | 0.00 | 0.00 | 45 | 1012.5 |
| 20260503191009 | 13 | 328 | 8.0 | 29.0 | 0.00 | 0.00 | 0.00 | 43 | 1012.5 |
| 20260503190510 | 13 | 313 | 11.3 | 29.0 | 0.00 | 0.00 | 0.00 | 43 | 1012.5 |
| 20260503190041 | 13 | 301 | 8.0 | 29.0 | 0.00 | 0.00 | 0.00 | 42 | 1012.5 |
| 20260503185511 | 13 | 315 | 14.5 | 29.0 | 0.00 | 0.00 | 0.00 | 44 | 1012.7 |
| 20260503185004 | 13 | 290 | 9.7 | 20.9 | 0.00 | 0.00 | 0.00 | 42 | 1012.7 |
| 20260503184510 | 13 | 338 | 6.4 | 22.5 | 0.00 | 0.00 | 0.00 | 42 | 1012.7 |
| 20260503184007 | 13 | 337 | 9.7 | 22.5 | 0.00 | 0.00 | 0.00 | 42 | 1012.8 |
| 20260503183508 | 13 | 298 | 4.8 | 27.4 | 0.00 | 0.00 | 0.00 | 43 | 1012.9 |
| 20260503183016 | 13 | 319 | 14.5 | 27.4 | 0.00 | 0.00 | 0.00 | 42 | 1013.0 |
| 20260503182508 | 13 | 299 | 12.9 | 20.9 | 0.00 | 0.00 | 0.00 | 44 | 1012.9 |
| 20260503182010 | 12 | 273 | 9.7 | 20.9 | 0.00 | 0.00 | 0.00 | 40 | 1012.9 |
| 20260503181517 | 12 | 274 | 8.0 | 24.1 | 0.00 | 0.00 | 0.00 | 42 | 1013.0 |
| 20260503181010 | 13 | 293 | 11.3 | 27.4 | 0.00 | 0.00 | 0.00 | 42 | 1013.0 |
| 20260503180509 | 13 | 304 | 4.8 | 27.4 | 0.00 | 0.00 | 0.00 | 43 | 1013.0 |
| 20260503180034 | 13 | 325 | 16.1 | 27.4 | 0.00 | 0.00 | 0.00 | 42 | 1013.0 |
| 20260503175509 | 13 | 310 | 8.0 | 19.3 | 0.00 | 0.00 | 0.00 | 41 | 1013.1 |
| 20260503175008 | 13 | 221 | 8.0 | 27.4 | 0.00 | 0.00 | 0.00 | 44 | 1013.2 |
| 20260503174527 | 13 | 308 | 8.0 | 27.4 | 0.00 | 0.00 | 0.00 | 47 | 1013.2 |
| 20260503174005 | 12 | 297 | 6.4 | 33.8 | 0.00 | 0.00 | 0.00 | 43 | 1013.2 |
| 20260503173504 | 12 | 344 | 12.9 | 33.8 | 0.00 | 0.00 | 0.00 | 47 | 1013.2 |
| 20260503173012 | 11 | 310 | 4.8 | 29.0 | 0.00 | 0.00 | 0.00 | 47 | 1013.2 |
| 20260503172504 | 12 | 264 | 9.7 | 25.7 | 0.00 | 0.00 | 0.00 | 47 | 1013.3 |
| 20260503172004 | 12 | 5 | 9.7 | 25.7 | 0.00 | 0.00 | 0.00 | 46 | 1013.4 |
| 20260503171531 | 11 | 332 | 12.9 | 25.7 | 0.00 | 0.00 | 0.00 | 44 | 1013.4 |
| 20260503171008 | 11 | 266 | 6.4 | 19.3 | 0.00 | 0.00 | 0.00 | 47 | 1013.5 |
| 20260503170506 | 11 | 319 | 8.0 | 24.1 | 0.00 | 0.00 | 0.00 | 1013.6 | |
| 20260503151010 | 10 | 308 | 6.4 | 24.1 | 0.00 | 0.03 | 0.00 | 49 | 1014.4 |
| 20260503150507 | 10 | 327 | 4.8 | 24.1 | 0.00 | 0.03 | 0.00 | 49 | 1014.4 |
| 20260503131005 | 6 | 77 | 6.4 | 20.9 | 0.00 | 0.03 | 0.00 | 62 | 1014.9 |
| 20260503130511 | 6 | 313 | 4.8 | 20.9 | 0.00 | 0.03 | 0.00 | 61 | 1014.9 |
| 20260503110509 | 3 | 9 | 3.2 | 16.1 | 0.00 | 0.03 | 0.00 | 71 | 1014.1 |